[[{"header":{"parameterUnit":"m.s-1","parameterCategory":1,"la1":30.2991,"la2":30.254,"lo1":-89.0895,"lo2":-89.0444,"dy":0.0017,"dx":0.0017,"nx":28,"ny":28,"refTime":"2023-10-05T03:00:00:Z","depth":0,"parameterNumber":2,"parameterNumberName":"U-component_of_WINDS"},"data":[0,0,0,0,0,0,0,0,0,0,0,0,0,0,0,0,0,0,0,0,0,0,0,0,0,0,0,0,0,0,0,0,0,0,0,0,0,0,0,0,0,0,0,0,0,0,0,0,0,0,0,0,0,0,0,0,0,0,-1.7461,-1.7461,0,-1.7502,-1.7502,-1.7503,-1.7489,-1.7488,-1.7487,-1.7486,-1.7528,-1.753,-1.7532,0,0,0,0,0,0,0,0,0,0,0,0,0,-1.7371,-1.7372,-1.7461,-1.7461,-1.7462,-1.7502,-1.7502,-1.7503,-1.7489,-1.7488,-1.7487,-1.7486,-1.7528,-1.753,-1.7532,0,0,0,0,0,0,0,0,0,0,0,0,0,-1.7411,-1.7373,-1.7461,-1.7459,-1.746,-1.7502,-1.7502,-1.7503,-1.7489,-1.7488,-1.7486,-1.7485,-1.7527,-1.753,-1.7533,-1.7578,0,0,-1.7542,-1.7543,0,0,0,0,0,0,0,0,-1.7408,-1.7414,-1.7459,-1.746,-1.746,-1.7489,-1.7486,-1.7528,-1.7489,-1.7478,-1.7486,-1.7484,-1.7516,-1.752,-1.7531,-1.758,-1.7582,-1.7542,-1.7544,-1.7545,-1.7546,0,0,0,0,0,0,0,-1.7406,-1.7412,-1.7477,-1.746,-1.746,-1.7457,-1.7461,-1.7494,-1.7504,-1.7479,-1.7478,-1.7483,-1.7516,-1.7528,-1.7532,-1.7583,-1.7542,-1.7545,-1.7546,-1.7548,-1.7672,-1.7674,0,0,0,0,0,0,-1.7403,-1.741,-1.7476,-1.7478,-1.743,-1.746,-1.7465,-1.7481,-1.7504,-1.7506,-1.7484,-1.7482,-1.7524,-1.7528,-1.7533,-1.7588,-1.7545,-1.7548,-1.755,-1.7671,-1.7673,-1.7674,0,0,0,0,0,0,-1.7401,-1.7409,-1.7474,-1.7444,-1.7452,-1.7463,-1.7481,-1.7482,-1.7494,-1.7508,-1.751,-1.7494,-1.7523,-1.7529,-1.7567,-1.7589,-1.7549,-1.7552,-1.7669,-1.7671,-1.7673,-1.7698,0,0,0,0,0,0,-1.7398,-1.7408,-1.7425,-1.7444,-1.7454,-1.7507,-1.7483,-1.7484,-1.7499,-1.7497,-1.7518,-1.752,-1.7522,-1.7563,-1.757,-1.7593,-1.7554,-1.7667,-1.767,-1.7673,-1.7695,-1.7701,-1.7705,0,0,0,0,0,-1.7395,-1.743,-1.7426,-1.7434,-1.7475,-1.7508,-1.7514,-1.7516,-1.7501,-1.7518,-1.7527,-1.7519,-1.7586,-1.7567,-1.7575,-1.7599,-1.7666,-1.7669,-1.7672,-1.7693,-1.77,-1.7705,0,0,0,0,0,0,-1.7413,-1.7433,-1.7428,-1.7471,-1.7488,-1.7506,-1.7528,-1.7523,-1.7545,-1.7542,-1.7543,-1.7548,-1.7588,-1.7597,-1.7576,-1.7644,-1.7624,-1.7629,-1.7636,-1.7643,-1.7648,-1.7644,-1.7557,0,0,0,0,0,-1.7422,-1.7447,-1.7463,-1.7499,-1.7508,-1.7517,-1.7531,-1.7531,-1.7549,-1.7557,-1.7568,-1.7586,-1.7611,-1.7628,-1.7652,-1.7697,-1.7701,-1.7717,-1.7722,-1.7726,-1.7731,-1.7756,-1.7763,-1.7685,-1.7685,-1.7685,0,0,-1.7441,-1.7455,-1.7471,-1.7503,-1.7517,-1.7543,-1.7523,-1.7552,-1.7571,-1.7561,-1.7598,-1.7607,-1.7628,-1.7669,-1.7689,-1.7679,-1.7753,-1.7731,-1.7734,-1.7736,-1.776,-1.7767,-1.7774,-1.7688,-1.7687,-1.7687,0,0,-1.7489,-1.7502,-1.7533,-1.7547,-1.7568,-1.7573,-1.7581,-1.76,-1.7606,-1.7643,-1.7636,-1.766,-1.7703,-1.7717,-1.773,-1.7785,-1.7778,-1.7793,-1.7819,-1.7844,-1.785,-1.7855,-1.7874,-1.7881,-1.7797,-1.7797,-1.7797,0,-1.7509,-1.7548,-1.755,-1.7579,-1.7594,-1.7586,-1.7618,-1.7632,-1.766,-1.767,-1.7659,-1.7713,-1.7726,-1.7771,-1.7785,-1.7796,-1.7805,-1.779,-1.7849,-1.7854,-1.7859,-1.7877,-1.7885,-1.7799,-1.7798,-1.7798,-1.7798,0,-1.7573,-1.76,-1.7623,-1.765,-1.7667,-1.7698,-1.7704,-1.7722,-1.7721,-1.7728,-1.7766,-1.7782,-1.7808,-1.782,-1.7819,-1.7865,-1.7858,-1.7848,-1.7827,-1.7868,-1.7885,-1.7892,-1.7801,-1.78,-1.78,-1.7799,0,0,-1.7632,-1.766,-1.7668,-1.768,-1.7703,-1.7724,-1.7755,-1.7781,-1.7796,-1.7816,-1.7841,-1.7878,-1.7869,-1.7884,-1.7885,-1.7906,-1.7948,-1.7893,-1.7894,-1.7903,-1.8001,-1.8008,-1.8016,-1.7944,-1.7946,-1.7947,-1.7999,0,-1.7681,-1.7734,-1.7737,-1.7785,-1.7811,-1.7804,-1.7831,-1.7848,-1.7856,-1.7879,-1.7887,-1.7913,-1.7899,-1.7908,-1.7929,-1.7939,-1.7968,-1.7935,-1.7968,-1.7969,-1.7963,-1.8025,-1.8033,-1.8081,-1.8006,-1.8007,-1.8007,0,-1.7745,-1.7767,-1.7817,-1.7837,-1.7848,-1.7871,-1.7896,-1.7918,-1.7937,-1.7941,-1.7959,-1.7957,-1.7989,-1.7968,-1.8011,-1.7989,-1.8003,-1.801,-1.8012,-1.8015,-1.799,-1.8029,-1.8096,-1.8103,-1.8018,-1.8017,-1.8017,0,-1.7783,-1.7825,-1.786,-1.7871,-1.7895,-1.7912,-1.7922,-1.794,-1.7956,-1.7978,-1.7988,-1.8014,-1.8027,-1.8047,-1.8053,-1.8037,-1.8097,-1.8076,-1.8101,-1.8101,-1.8113,-1.8112,-1.8183,-1.8123,-1.8123,-1.8123,-1.8123,0,-1.7837,-1.7869,-1.7878,-1.79,-1.7935,-1.7938,-1.7973,-1.7983,-1.7999,-1.8023,-1.8019,-1.8042,-1.8048,-1.8072,-1.8077,-1.8112,-1.8119,-1.8123,-1.8124,-1.8123,-1.8122,-1.8132,-1.8128,-1.8125,-1.8124,-1.8124,-1.8124,0,-1.7885,-1.7892,-1.7931,-1.795,-1.7956,-1.7981,-1.7998,-1.8019,-1.8026,-1.8057,-1.8064,-1.8076,-1.8104,-1.8112,-1.8145,-1.8149,-1.8191,-1.8188,-1.8184,-1.8184,-1.8208,-1.8206,-1.8287,-1.8298,-1.8231,-1.8232,-1.8232,0,-1.7919,-1.7943,-1.7965,-1.798,-1.7992,-1.8017,-1.8033,-1.8038,-1.8055,-1.8079,-1.8098,-1.8125,-1.8148,-1.8193,-1.8205,-1.8231,-1.8229,-1.8256,-1.8233,-1.8232,-1.8229,-1.8228,-1.823,-1.826,-1.8261,-1.8261,-1.8262,0,-1.7978,-1.7981,-1.8004,-1.8029,-1.8048,-1.8068,-1.8087,-1.81,-1.8107,-1.8127,-1.8155,-1.8173,-1.8207,-1.8235,-1.8261,-1.8273,-1.8269,-1.8269,-1.8276,-1.8276,-1.8272,-1.8274,-1.8195,-1.8267,-1.8267,-1.8266,-1.8266,-1.8266,-1.802,-1.8041,-1.8059,-1.8085,-1.81,-1.8118,-1.8139,-1.8149,-1.8173,-1.8201,-1.8203,-1.8234,-1.8254,-1.8289,-1.8302,-1.8326,-1.8318,-1.8329,-1.8331,-1.8334,-1.8336,-1.8268,-1.8331,-1.8331,-1.8331,-1.8331,-1.8331,0,-1.8078,-1.809,-1.8114,-1.8141,-1.8161,-1.8156,-1.8177,-1.8195,-1.8222,-1.824,-1.8262,-1.8296,-1.8323,-1.8337,-1.8364,-1.8381,-1.838,-1.8388,-1.8387,-1.8389,-1.8341,-1.8332,-1.8389,-1.8388,-1.8388,-1.8388,-1.8388,-1.8388,-1.8111,-1.8147,-1.8152,-1.8194,-1.8206,-1.8236,-1.8249,-1.8265,-1.828,-1.8317,-1.834,-1.8349,-1.8366,-1.8394,-1.8419,-1.8422,-1.8432,-1.8441,-1.8444,-1.8399,-1.8393,-1.8387,-1.8379,-1.8443,-1.8444,-1.849,-1.849,-1.849]},{"header":{"parameterUnit":"m.s-1","parameterCategory":1,"la1":30.2991,"la2":30.254,"lo1":-89.0895,"lo2":-89.0444,"dy":0.0017,"dx":0.0017,"nx":28,"ny":28,"refTime":"2023-10-05T03:00:00:Z","depth":0,"parameterNumber":3,"parameterNumberName":"V-component_of_WINDS"},"data":[0,0,0,0,0,0,0,0,0,0,0,0,0,0,0,0,0,0,0,0,0,0,0,0,0,0,0,0,0,0,0,0,0,0,0,0,0,0,0,0,0,0,0,0,0,0,0,0,0,0,0,0,0,0,0,0,0,0,3.3519,3.3519,0,3.3521,3.3521,3.3521,3.3454,3.3452,3.345,3.3448,3.3449,3.3451,3.3452,0,0,0,0,0,0,0,0,0,0,0,0,0,3.3456,3.3458,3.3519,3.3519,3.3519,3.3521,3.3521,3.3521,3.3454,3.3452,3.3449,3.3447,3.3448,3.345,3.3453,0,0,0,0,0,0,0,0,0,0,0,0,0,3.3473,3.3458,3.3519,3.3486,3.3483,3.3521,3.3521,3.3521,3.3454,3.3452,3.3449,3.3446,3.3448,3.345,3.3453,3.3523,0,0,3.3461,3.3462,0,0,0,0,0,0,0,0,3.3473,3.3476,3.3491,3.3488,3.3485,3.3484,3.3499,3.3522,3.3455,3.3465,3.3448,3.3445,3.3463,3.3464,3.347,3.3523,3.3523,3.3461,3.3462,3.3463,3.3464,0,0,0,0,0,0,0,3.3471,3.3475,3.352,3.3491,3.3488,3.3471,3.347,3.3503,3.3479,3.3464,3.3459,3.346,3.3461,3.3468,3.347,3.3523,3.3461,3.3463,3.3465,3.3466,3.3632,3.3635,0,0,0,0,0,0,3.3475,3.3475,3.352,3.352,3.3472,3.3474,3.3473,3.3487,3.3479,3.3475,3.3463,3.3457,3.3465,3.3467,3.347,3.355,3.3463,3.3466,3.3467,3.3629,3.3633,3.3636,0,0,0,0,0,0,3.3474,3.348,3.352,3.3496,3.35,3.3478,3.3494,3.3489,3.3496,3.3478,3.3473,3.3475,3.3463,3.3466,3.351,3.355,3.3467,3.3469,3.3626,3.363,3.3634,3.3713,0,0,0,0,0,0,3.3472,3.348,3.3506,3.3497,3.3501,3.3561,3.3497,3.3491,3.3501,3.3493,3.3487,3.3484,3.3461,3.3507,3.3513,3.3552,3.3471,3.3622,3.3628,3.3633,3.3707,3.372,3.3731,0,0,0,0,0,3.347,3.3528,3.3508,3.3514,3.3534,3.3563,3.3565,3.3538,3.3504,3.353,3.3519,3.3484,3.3545,3.3512,3.3518,3.3558,3.362,3.3626,3.3633,3.3702,3.3717,3.373,0,0,0,0,0,0,3.3541,3.3526,3.3504,3.356,3.3564,3.3552,3.3584,3.3556,3.3568,3.3561,3.3527,3.3526,3.3576,3.3571,3.3535,3.3625,3.3576,3.3584,3.3626,3.3641,3.3652,3.3652,3.3473,0,0,0,0,0,3.3564,3.3589,3.3574,3.3625,3.3628,3.3606,3.3617,3.3597,3.3598,3.3599,3.3591,3.3594,3.3613,3.3627,3.3644,3.3706,3.3704,3.3737,3.3749,3.3759,3.3766,3.3799,3.3813,3.3657,3.3657,3.3657,0,0,3.361,3.3605,3.3622,3.3639,3.3639,3.3666,3.3607,3.3638,3.3657,3.3604,3.3645,3.3639,3.364,3.3694,3.3717,3.3691,3.3809,3.3767,3.3775,3.3777,3.3807,3.3822,3.3835,3.3662,3.3661,3.366,0,0,3.3707,3.3706,3.3748,3.375,3.3751,3.3736,3.3747,3.3739,3.3734,3.3774,3.3735,3.3757,3.3792,3.3794,3.38,3.39,3.3868,3.3906,3.3968,3.4,3.4012,3.4023,3.4058,3.4071,3.3913,3.3914,3.3914,0,3.3764,3.3803,3.3774,3.3807,3.3816,3.3769,3.3812,3.3815,3.3822,3.3829,3.38,3.3843,3.384,3.3894,3.3918,3.3925,3.3935,3.3906,3.4013,3.4023,3.4033,3.4066,3.4079,3.3918,3.3918,3.3917,3.3917,0,3.3873,3.39,3.3934,3.3943,3.3955,3.3993,3.397,3.3986,3.3964,3.3952,3.3994,3.399,3.4005,3.4016,3.3995,3.4067,3.4051,3.4019,3.3968,3.4053,3.4083,3.4096,3.3925,3.3923,3.3922,3.3921,0,0,3.4014,3.4006,3.4019,3.4023,3.4021,3.4042,3.4078,3.4093,3.4108,3.4114,3.4143,3.4174,3.4144,3.415,3.4129,3.4158,3.4237,3.4121,3.4121,3.4143,3.4315,3.434,3.4355,3.4216,3.4218,3.422,3.4315,0,3.4108,3.4169,3.4145,3.4208,3.4233,3.419,3.4221,3.4223,3.4213,3.4233,3.4222,3.4244,3.4203,3.4206,3.4233,3.4222,3.4271,3.4214,3.4242,3.4244,3.4243,3.4371,3.4397,3.4487,3.4327,3.4329,3.4331,0,3.4226,3.4238,3.4304,3.4299,3.4308,3.4337,3.4349,3.4369,3.4371,3.4361,3.4369,3.4342,3.4376,3.4327,3.4374,3.4336,3.4347,3.4343,3.4346,3.4347,3.4292,3.4375,3.4515,3.4528,3.4349,3.4348,3.4346,0,3.4323,3.4355,3.4399,3.4403,3.4398,3.4419,3.4417,3.4417,3.4428,3.4439,3.4446,3.446,3.4468,3.448,3.4458,3.4424,3.4508,3.4457,3.4501,3.4502,3.452,3.4519,3.4663,3.4528,3.4528,3.4527,3.4527,0,3.443,3.4472,3.4442,3.4469,3.4515,3.4486,3.4532,3.4526,3.4526,3.455,3.4514,3.4538,3.4507,3.4528,3.451,3.4552,3.4556,3.4549,3.4544,3.4552,3.4553,3.4558,3.4551,3.4531,3.453,3.4529,3.4529,0,3.4545,3.4527,3.4572,3.4563,3.4562,3.4596,3.4589,3.4613,3.4601,3.4633,3.4638,3.4619,3.4642,3.4621,3.4642,3.463,3.4686,3.4672,3.4686,3.4682,3.4727,3.4723,3.4879,3.4898,3.4751,3.4752,3.4753,0,3.4615,3.4646,3.4642,3.4656,3.4657,3.468,3.4692,3.4665,3.4678,3.4683,3.4707,3.4727,3.4741,3.4779,3.4767,3.4784,3.4769,3.4823,3.4771,3.4779,3.477,3.4768,3.4771,3.4833,3.4835,3.4836,3.4837,0,3.4741,3.473,3.4748,3.4764,3.4779,3.4789,3.4797,3.481,3.4783,3.4799,3.4823,3.4834,3.4856,3.4876,3.4889,3.4887,3.4858,3.4854,3.4865,3.4873,3.488,3.4877,3.4714,3.485,3.4849,3.4848,3.4847,3.4847,3.4835,3.4861,3.4862,3.4884,3.4887,3.4895,3.4918,3.4909,3.4927,3.4944,3.4927,3.4955,3.4956,3.497,3.4972,3.4994,3.4971,3.4987,3.4991,3.4996,3.5002,3.4877,3.4996,3.4995,3.4995,3.4995,3.4994,0,3.4959,3.4958,3.4978,3.499,3.5007,3.4979,3.4986,3.5002,3.5027,3.5031,3.5046,3.5073,3.5092,3.5082,3.5099,3.5118,3.5105,3.5124,3.5122,3.5122,3.5021,3.501,3.5134,3.5134,3.5134,3.5134,3.5134,3.5134,3.5026,3.5068,3.5058,3.5102,3.51,3.5128,3.5134,3.5142,3.5144,3.5176,3.5192,3.5186,3.5184,3.52,3.5217,3.5213,3.5221,3.5244,3.5236,3.5142,3.5129,3.5116,3.5105,3.5246,3.5247,3.5335,3.5335,3.5336]}]]